TimePDT,TemperatureF,Dew PointF,Humidity,Sea Level PressureIn,VisibilityMPH,Wind Direction,Wind SpeedMPH,Gust SpeedMPH,PrecipitationIn,Events,Conditions,WindDirDegrees,DateUTC
12:15 AM,42.8,41.0,93,29.95,3.0,Calm,Calm,-,N/A,,Clear,0,2012-10-08 07:15:00
12:35 AM,42.8,39.2,87,29.95,1.8,Calm,Calm,-,N/A,,Clear,0,2012-10-08 07:35:00
12:55 AM,44.6,41.0,87,29.95,9.0,Calm,Calm,-,N/A,,Clear,0,2012-10-08 07:55:00
1:15 AM,42.8,37.4,81,29.96,10.0,Calm,Calm,-,N/A,,Clear,0,2012-10-08 08:15:00
1:35 AM,41.0,39.2,93,29.96,0.5,Calm,Calm,-,N/A,,Unknown,0,2012-10-08 08:35:00
1:55 AM,41.0,37.4,87,29.96,7.0,Calm,Calm,-,N/A,,Clear,0,2012-10-08 08:55:00
2:15 AM,39.2,37.4,93,29.96,2.5,Calm,Calm,-,N/A,,Clear,0,2012-10-08 09:15:00
2:35 AM,41.0,37.4,87,29.96,10.0,Calm,Calm,-,N/A,,Clear,0,2012-10-08 09:35:00
2:55 AM,42.8,39.2,87,29.96,10.0,Calm,Calm,-,N/A,,Clear,0,2012-10-08 09:55:00
3:15 AM,41.0,37.4,87,29.95,10.0,Calm,Calm,-,N/A,,Clear,0,2012-10-08 10:15:00
3:35 AM,39.2,37.4,93,29.95,10.0,Calm,Calm,-,N/A,,Clear,0,2012-10-08 10:35:00
3:55 AM,39.2,35.6,87,29.95,10.0,Calm,Calm,-,N/A,,Clear,0,2012-10-08 10:55:00
4:15 AM,39.2,35.6,87,29.96,5.0,Calm,Calm,-,N/A,,Partly Cloudy,0,2012-10-08 11:15:00
4:35 AM,39.2,37.4,93,29.96,0.2,Calm,Calm,-,N/A,,Mostly Cloudy,0,2012-10-08 11:35:00
4:55 AM,37.4,35.6,93,29.96,10.0,Calm,Calm,-,N/A,,Clear,0,2012-10-08 11:55:00
5:15 AM,37.4,37.4,100,29.97,0.8,Calm,Calm,-,N/A,,Mostly Cloudy,0,2012-10-08 12:15:00
5:35 AM,39.2,35.6,87,29.96,10.0,Calm,Calm,-,N/A,,Partly Cloudy,0,2012-10-08 12:35:00
5:55 AM,39.2,37.4,93,29.96,5.0,Calm,Calm,-,N/A,,Clear,0,2012-10-08 12:55:00
6:15 AM,37.4,35.6,93,29.96,2.0,Calm,Calm,-,N/A,,Clear,0,2012-10-08 13:15:00
6:35 AM,37.4,35.6,93,29.96,4.0,Calm,Calm,-,N/A,,Clear,0,2012-10-08 13:35:00
6:55 AM,37.4,35.6,93,29.96,1.0,Calm,Calm,-,N/A,,Clear,0,2012-10-08 13:55:00
7:15 AM,37.4,35.6,93,29.97,10.0,Calm,Calm,-,N/A,,Clear,0,2012-10-08 14:15:00
7:35 AM,37.4,35.6,93,29.97,10.0,Calm,Calm,-,N/A,,Clear,0,2012-10-08 14:35:00
7:55 AM,37.4,33.8,87,29.98,10.0,Calm,Calm,-,N/A,,Clear,0,2012-10-08 14:55:00
8:15 AM,37.4,35.6,93,29.98,10.0,Calm,Calm,-,N/A,,Clear,0,2012-10-08 15:15:00
8:35 AM,42.8,39.2,87,29.99,10.0,Calm,Calm,-,N/A,,Clear,0,2012-10-08 15:35:00
8:55 AM,44.6,41.0,87,29.98,10.0,Calm,Calm,-,N/A,,Clear,0,2012-10-08 15:55:00
9:15 AM,46.4,42.8,87,29.98,10.0,Calm,Calm,-,N/A,,Clear,0,2012-10-08 16:15:00
9:35 AM,48.2,42.8,82,29.99,10.0,Calm,Calm,-,N/A,,Clear,0,2012-10-08 16:35:00
9:55 AM,51.8,42.8,71,29.98,10.0,Calm,Calm,-,N/A,,Clear,0,2012-10-08 16:55:00
10:15 AM,53.6,42.8,67,29.98,10.0,Calm,Calm,-,N/A,,Clear,0,2012-10-08 17:15:00
10:35 AM,57.2,44.6,63,29.98,10.0,Calm,Calm,-,N/A,,Clear,0,2012-10-08 17:35:00
10:55 AM,59.0,44.6,59,29.99,10.0,Calm,Calm,-,N/A,,Clear,0,2012-10-08 17:55:00
11:15 AM,60.8,44.6,55,29.99,10.0,Calm,Calm,-,N/A,,Clear,0,2012-10-08 18:15:00
11:35 AM,62.6,44.6,52,29.98,10.0,Calm,Calm,-,N/A,,Clear,0,2012-10-08 18:35:00
11:55 AM,62.6,42.8,48,29.98,10.0,SW,4.6,-,N/A,,Clear,220,2012-10-08 18:55:00
12:15 PM,64.4,42.8,45,29.98,10.0,South,5.8,-,N/A,,Clear,180,2012-10-08 19:15:00
12:35 PM,64.4,42.8,45,29.98,10.0,South,4.6,-,N/A,,Clear,190,2012-10-08 19:35:00
12:55 PM,66.2,42.8,43,29.97,10.0,South,3.5,-,N/A,,Clear,170,2012-10-08 19:55:00
1:15 PM,68.0,42.8,40,29.97,10.0,SSE,5.8,-,N/A,,Clear,150,2012-10-08 20:15:00
1:35 PM,68.0,44.6,43,29.96,10.0,South,4.6,-,N/A,,Clear,180,2012-10-08 20:35:00
1:55 PM,68.0,44.6,43,29.96,10.0,South,4.6,-,N/A,,Clear,190,2012-10-08 20:55:00
2:15 PM,69.8,44.6,40,29.96,10.0,SSW,4.6,-,N/A,,Clear,200,2012-10-08 21:15:00
2:35 PM,69.8,44.6,40,29.95,10.0,SE,4.6,-,N/A,,Clear,140,2012-10-08 21:35:00
2:55 PM,69.8,44.6,40,29.95,10.0,SSW,3.5,-,N/A,,Clear,200,2012-10-08 21:55:00
3:15 PM,71.6,44.6,38,29.95,10.0,SE,5.8,-,N/A,,Clear,140,2012-10-08 22:15:00
3:35 PM,71.6,46.4,41,29.95,10.0,Calm,Calm,-,N/A,,Clear,0,2012-10-08 22:35:00
3:55 PM,71.6,46.4,41,29.95,10.0,NW,4.6,-,N/A,,Clear,310,2012-10-08 22:55:00
4:15 PM,69.8,46.4,43,29.95,10.0,NNW,5.8,-,N/A,,Clear,330,2012-10-08 23:15:00
4:35 PM,69.8,46.4,43,29.95,10.0,NW,5.8,-,N/A,,Clear,310,2012-10-08 23:35:00
4:55 PM,69.8,46.4,43,29.95,10.0,NNW,6.9,-,N/A,,Clear,330,2012-10-08 23:55:00
5:15 PM,69.8,44.6,40,29.95,10.0,NW,4.6,-,N/A,,Clear,320,2012-10-09 00:15:00
5:35 PM,68.0,44.6,43,29.95,10.0,NW,4.6,-,N/A,,Clear,320,2012-10-09 00:35:00
5:55 PM,66.2,44.6,46,29.95,10.0,NW,5.8,-,N/A,,Clear,310,2012-10-09 00:55:00
6:35 PM,62.6,44.6,52,29.96,10.0,Calm,Calm,-,N/A,,Clear,0,2012-10-09 01:35:00
6:55 PM,59.0,44.6,59,29.96,10.0,Calm,Calm,-,N/A,,Clear,0,2012-10-09 01:55:00
7:15 PM,59.0,44.6,59,29.97,10.0,Calm,Calm,-,N/A,,Clear,0,2012-10-09 02:15:00
7:35 PM,57.2,44.6,63,29.97,10.0,Calm,Calm,-,N/A,,Clear,0,2012-10-09 02:35:00
7:55 PM,55.4,44.6,67,29.98,10.0,Calm,Calm,-,N/A,,Clear,0,2012-10-09 02:55:00
8:15 PM,55.4,44.6,67,29.98,10.0,WNW,3.5,-,N/A,,Clear,300,2012-10-09 03:15:00
8:55 PM,51.8,44.6,76,30.00,10.0,Calm,Calm,-,N/A,,Clear,0,2012-10-09 03:55:00
9:15 PM,51.8,44.6,76,30.00,10.0,NNW,3.5,-,N/A,,Clear,330,2012-10-09 04:15:00
9:35 PM,51.8,44.6,76,30.02,10.0,Calm,Calm,-,N/A,,Clear,0,2012-10-09 04:35:00
9:55 PM,51.8,44.6,76,30.02,10.0,Calm,Calm,-,N/A,,Clear,0,2012-10-09 04:55:00
10:15 PM,48.2,42.8,82,30.03,10.0,Calm,Calm,-,N/A,,Clear,0,2012-10-09 05:15:00
10:35 PM,48.2,44.6,87,30.03,10.0,Calm,Calm,-,N/A,,Clear,0,2012-10-09 05:35:00
10:55 PM,46.4,42.8,87,30.04,10.0,Calm,Calm,-,N/A,,Clear,0,2012-10-09 05:55:00
11:15 PM,46.4,42.8,87,30.04,10.0,Calm,Calm,-,N/A,,Clear,0,2012-10-09 06:15:00
11:55 PM,46.4,42.8,87,30.05,10.0,Calm,Calm,-,N/A,,Clear,0,2012-10-09 06:55:00